Flag for U.S.A. Weather past 2 weeks in Augusta, Georgia, U.S.A.

Now
87 °F

Sunny.


Feels Like: 85 °F
Forecast: 65 / 93 °F
Wind: No wind

Location: Daniel Field

Current Time: Aug 28, 2014 at 9:37:21 PM

Latest Report: Aug 28, 2014 at 8:53 PM


Visibility: 10 mi

Pressure: 29.97 "Hg

Humidity: 32%

Dew point: 54 °F

Location of AugustaLocation

Historic Weather in Augusta — Graph

°F

Augusta temperature yesterday

Maximum temperature yesterday: 94 °F (at 4:53 PM)
Minimum temperature yesterday: 68 °F (at 6:53 AM)
Average temperature yesterday: 81 °F

Past Weeks' High & Low Weather Summary

 TemperatureHumidityPressure
High100 °F (Aug 22, 3:53 PM)100% (Aug 16, 6:53 AM)30.11 "Hg (Aug 16, 6:53 AM)
Low68 °F (Aug 26, 6:53 AM)17% (Aug 28, 3:53 PM)29.83 "Hg (Aug 23, 6:53 PM)
Average83 °F58%29.98 "Hg
* Reported Aug 13 7:53 PM — Aug 28 7:53 PM, Augusta, Weather by CustomWeather, © 2014

Note: Actual official high and low records may vary slightly from our data, if they occured in-between our weather recording intervals... More about our weather records

Advertising

Augusta weather history for previous 24 hours

 ConditionsComfort  
Time TempWeatherWind HumidityBarometerVisibility
7:53 PM
Aug 28
89 °FSunny.5 mph28%29.96 "Hg10 mi
6:53 PM93 °FSunny.9 mph24%29.96 "Hg10 mi
5:53 PM94 °FSunny.5 mph21%29.96 "Hg10 mi
4:53 PM95 °FSunny.6 mph19%29.96 "Hg10 mi
3:53 PM95 °FSunny.3 mph17%29.96 "Hg10 mi
2:53 PM93 °FSunny.6 mph24%29.98 "Hg10 mi
1:53 PM93 °FSunny.N/A27%30.00 "Hg10 mi
12:53 PM89 °FSunny.3 mph31%30.02 "Hg10 mi
11:53 AM87 °FSunny.5 mph39%30.04 "Hg10 mi
10:53 AM83 °FSunny.5 mph46%30.05 "Hg10 mi
9:53 AM79 °FSunny.No wind56%30.04 "Hg10 mi
8:53 AM75 °FSunny.No wind62%30.04 "Hg10 mi
7:53 AM70 °FClear.3 mph71%30.03 "Hg10 mi
6:53 AM70 °FClear.No wind68%30.02 "Hg10 mi
5:53 AM70 °FClear.No wind68%30.01 "Hg10 mi
4:53 AM72 °FClear.3 mph61%30.00 "Hg10 mi
3:53 AM72 °FClear.3 mph59%30.00 "Hg10 mi
2:53 AM73 °FClear.No wind57%29.99 "Hg10 mi
1:53 AM76 °FClear.3 mph52%30.00 "Hg10 mi
12:53 AM78 °FClear.6 mph46%30.01 "Hg10 mi
11:53 PM
Aug 27
78 °FClear.5 mph46%30.01 "Hg10 mi
10:53 PM80 °FClear.6 mph41%30.01 "Hg10 mi
9:53 PM84 °FClear.7 mph35%30.00 "Hg10 mi
Weather by CustomWeather, © 2014

See weather overviewHow to use our weather pages